WZZ2596 LHBP-EKCH

Flight info

Callsign WZZ2596
Flight time 1h 47m
Altitude 36000
Route BADOV DCT TURIS DCT MAKAL DCT DESEN DCT GOSOT DCT ROE M743 TIDVU
Aircraft A21N/M-SDE1E2E3FGIJ1J4RWXY/LB1

Departure

Time 2026-04-26 06:24
Airport Budapest Liszt Ferenc International Airport (LHBP)

Arrival

Time 2026-04-26 08:11
Airport Copenhagen Kastrup Airport (EKCH)
Time Latitude Longitude Altitude Speed Heading
2026-04-26 05:56 47.43569 19.26396 475 ft 0 kts 221°
2026-04-26 06:15 47.43569 19.26397 475 ft 0 kts 222°
2026-04-26 06:15 47.43580 19.26410 475 ft 2 kts 219°
2026-04-26 06:15 47.43591 19.26426 475 ft 2 kts 242°
2026-04-26 06:16 47.43594 19.26447 475 ft 2 kts 276°
2026-04-26 06:16 47.43590 19.26467 475 ft 1 kts 307°
2026-04-26 06:16 47.43586 19.26473 475 ft 1 kts 315°
2026-04-26 06:16 47.43584 19.26476 475 ft 0 kts 313°
2026-04-26 06:18 47.43584 19.26475 475 ft 0 kts 313°
2026-04-26 06:18 47.43591 19.26465 475 ft 2 kts 312°
2026-04-26 06:19 47.43608 19.26435 475 ft 4 kts 311°
2026-04-26 06:19 47.43636 19.26390 475 ft 6 kts 307°
2026-04-26 06:19 47.43649 19.26365 475 ft 4 kts 310°
2026-04-26 06:19 47.43668 19.26320 475 ft 6 kts 293°
2026-04-26 06:20 47.43676 19.26251 475 ft 7 kts 271°
2026-04-26 06:20 47.43672 19.26156 475 ft 10 kts 266°
2026-04-26 06:20 47.43687 19.26045 475 ft 11 kts 300°
2026-04-26 06:20 47.43735 19.25947 476 ft 9 kts 282°
2026-04-26 06:21 47.43698 19.25861 475 ft 11 kts 219°
2026-04-26 06:21 47.43628 19.25773 474 ft 14 kts 222°
2026-04-26 06:21 47.43546 19.25662 470 ft 18 kts 222°
2026-04-26 06:21 47.43443 19.25525 467 ft 20 kts 223°
2026-04-26 06:22 47.43335 19.25377 463 ft 22 kts 222°
2026-04-26 06:22 47.43217 19.25219 457 ft 23 kts 222°
2026-04-26 06:22 47.43105 19.25067 451 ft 16 kts 222°
2026-04-26 06:22 47.43081 19.24970 447 ft 12 kts 301°
2026-04-26 06:23 47.43095 19.24945 447 ft 1 kts 311°
2026-04-26 06:23 47.43193 19.24779 444 ft 56 kts 313°
2026-04-26 06:23 47.43627 19.24081 434 ft 124 kts 313°
2026-04-26 06:23 47.44299 19.22994 708 ft 151 kts 310°
2026-04-26 06:24 47.44996 19.21864 1459 ft 148 kts 311°
2026-04-26 06:24 47.45659 19.20798 2247 ft 144 kts 314°
2026-04-26 06:24 47.46345 19.19740 2784 ft 148 kts 315°
2026-04-26 06:24 47.47079 19.18586 3193 ft 161 kts 315°
2026-04-26 06:25 47.47866 19.17339 3549 ft 177 kts 315°
2026-04-26 06:25 47.48777 19.15973 3855 ft 198 kts 318°
2026-04-26 06:25 47.49878 19.14595 4238 ft 218 kts 323°
2026-04-26 06:25 47.51250 19.13478 4819 ft 231 kts 335°
2026-04-26 06:26 47.52752 19.12596 5668 ft 233 kts 336°
2026-04-26 06:26 47.54242 19.11730 6563 ft 232 kts 335°
2026-04-26 06:26 47.55742 19.10838 7406 ft 233 kts 334°
2026-04-26 06:26 47.57226 19.09940 8195 ft 236 kts 334°
2026-04-26 06:27 47.58735 19.09013 8971 ft 238 kts 333°
2026-04-26 06:27 47.60258 19.08070 9727 ft 239 kts 333°
2026-04-26 06:27 47.61784 19.07119 10413 ft 243 kts 333°
2026-04-26 06:27 47.63378 19.06115 10774 ft 258 kts 333°
2026-04-26 06:28 47.65062 19.05056 11238 ft 269 kts 333°
2026-04-26 06:28 47.66799 19.03964 11878 ft 273 kts 333°
2026-04-26 06:28 47.68539 19.02872 12516 ft 277 kts 333°
2026-04-26 06:28 47.70342 19.01735 13147 ft 281 kts 333°
2026-04-26 06:29 47.72117 19.00618 13766 ft 283 kts 333°
2026-04-26 06:29 47.73940 18.99466 14397 ft 286 kts 333°
2026-04-26 06:29 47.75780 18.98303 15008 ft 289 kts 333°
2026-04-26 06:29 47.77629 18.97134 15602 ft 292 kts 333°
2026-04-26 06:30 47.79492 18.95954 16173 ft 294 kts 334°
2026-04-26 06:30 47.81386 18.94754 16761 ft 296 kts 334°
2026-04-26 06:30 47.83257 18.93569 17346 ft 297 kts 334°
2026-04-26 06:30 47.85166 18.92357 17911 ft 299 kts 334°
2026-04-26 06:31 47.87065 18.91153 18428 ft 301 kts 334°
2026-04-26 06:31 47.89011 18.89915 18944 ft 303 kts 334°
2026-04-26 06:31 47.90927 18.88699 19451 ft 305 kts 334°
2026-04-26 06:31 47.92896 18.87445 19945 ft 307 kts 335°
2026-04-26 06:32 47.94863 18.86193 20402 ft 310 kts 334°
2026-04-26 06:32 47.96856 18.84923 20867 ft 312 kts 334°
2026-04-26 06:32 47.98860 18.83643 21293 ft 315 kts 334°
2026-04-26 06:32 48.00871 18.82327 21743 ft 317 kts 333°
2026-04-26 06:33 48.02828 18.80865 22210 ft 318 kts 330°
2026-04-26 06:33 48.04752 18.79233 22624 ft 320 kts 329°
2026-04-26 06:33 48.06671 18.77548 23034 ft 322 kts 328°
2026-04-26 06:33 48.08616 18.75828 23430 ft 325 kts 328°
2026-04-26 06:34 48.10560 18.74106 23823 ft 327 kts 328°
2026-04-26 06:34 48.12519 18.72364 24240 ft 329 kts 328°
2026-04-26 06:34 48.14488 18.70616 24635 ft 331 kts 328°
2026-04-26 06:34 48.16457 18.68867 25017 ft 334 kts 328°
2026-04-26 06:35 48.18457 18.67083 25420 ft 336 kts 328°
2026-04-26 06:35 48.20448 18.65307 25793 ft 338 kts 329°
2026-04-26 06:35 48.22468 18.63508 26151 ft 340 kts 328°
2026-04-26 06:35 48.24508 18.61684 26516 ft 342 kts 329°
2026-04-26 06:36 48.26564 18.59844 26883 ft 344 kts 328°
2026-04-26 06:36 48.28594 18.58027 27244 ft 345 kts 329°
2026-04-26 06:36 48.30673 18.56161 27571 ft 348 kts 329°
2026-04-26 06:36 48.32751 18.54301 27911 ft 350 kts 329°
2026-04-26 06:37 48.34893 18.52608 28220 ft 353 kts 334°
2026-04-26 06:37 48.37167 18.51155 28566 ft 355 kts 338°
2026-04-26 06:37 48.39513 18.49984 28893 ft 358 kts 342°
2026-04-26 06:37 48.41919 18.49014 29230 ft 359 kts 343°
2026-04-26 06:38 48.44348 18.48065 29544 ft 361 kts 343°
2026-04-26 06:38 48.46791 18.47117 29833 ft 364 kts 343°
2026-04-26 06:38 48.49226 18.46172 30141 ft 365 kts 343°
2026-04-26 06:38 48.51688 18.45216 30430 ft 367 kts 343°
2026-04-26 06:39 48.54141 18.44269 30727 ft 369 kts 343°
2026-04-26 06:39 48.56630 18.43301 31014 ft 370 kts 343°
2026-04-26 06:39 48.59128 18.42337 31315 ft 371 kts 343°
2026-04-26 06:39 48.61633 18.41365 31600 ft 372 kts 343°
2026-04-26 06:40 48.64124 18.40395 31843 ft 375 kts 343°
2026-04-26 06:40 48.66642 18.39416 32084 ft 377 kts 343°
2026-04-26 06:40 48.69209 18.38414 32316 ft 379 kts 343°
2026-04-26 06:40 48.71756 18.37421 32548 ft 381 kts 343°
2026-04-26 06:41 48.74296 18.36430 32777 ft 382 kts 343°
2026-04-26 06:41 48.76881 18.35423 33019 ft 384 kts 343°
2026-04-26 06:41 48.79479 18.34404 33275 ft 384 kts 342°
2026-04-26 06:41 48.82041 18.33403 33619 ft 383 kts 342°
2026-04-26 06:42 48.84613 18.32394 33954 ft 382 kts 342°
2026-04-26 06:42 48.87159 18.31397 34264 ft 381 kts 342°
2026-04-26 06:42 48.89736 18.30384 34574 ft 380 kts 342°
2026-04-26 06:42 48.92268 18.29392 34861 ft 380 kts 342°
2026-04-26 06:43 48.94817 18.28386 35036 ft 382 kts 342°
2026-04-26 06:43 48.97392 18.27372 35233 ft 384 kts 342°
2026-04-26 06:43 48.99976 18.26356 35456 ft 385 kts 342°
2026-04-26 06:43 49.02571 18.25328 35653 ft 386 kts 342°
2026-04-26 06:44 49.05168 18.24302 35836 ft 387 kts 342°
2026-04-26 06:44 49.07769 18.23271 36015 ft 388 kts 342°
2026-04-26 06:44 49.10386 18.22234 36085 ft 390 kts 342°
2026-04-26 06:45 49.15604 18.20162 36093 ft 389 kts 342°
2026-04-26 06:45 49.20819 18.18087 36090 ft 388 kts 342°
2026-04-26 06:46 49.25950 18.15662 36084 ft 385 kts 337°
2026-04-26 06:46 49.30913 18.12672 36088 ft 385 kts 335°
2026-04-26 06:47 49.35873 18.09595 36090 ft 385 kts 335°
2026-04-26 06:47 49.40784 18.06536 35962 ft 383 kts 335°
2026-04-26 06:48 49.45734 18.03447 36088 ft 384 kts 335°
2026-04-26 06:48 49.50649 18.00370 36114 ft 384 kts 335°
2026-04-26 06:49 49.55595 17.97271 36132 ft 384 kts 335°
2026-04-26 06:49 49.60527 17.94172 36127 ft 383 kts 335°
2026-04-26 06:50 49.65422 17.91088 36138 ft 382 kts 335°
2026-04-26 06:50 49.70330 17.87989 36132 ft 382 kts 335°
2026-04-26 06:51 49.75221 17.84895 36138 ft 380 kts 336°
2026-04-26 06:51 49.82531 17.80257 36133 ft 380 kts 336°
2026-04-26 06:52 49.87411 17.77153 36132 ft 379 kts 336°
2026-04-26 06:52 49.92256 17.74064 36124 ft 378 kts 335°
2026-04-26 06:53 49.97121 17.70954 36131 ft 378 kts 335°
2026-04-26 06:53 50.01969 17.67848 36127 ft 378 kts 336°
2026-04-26 06:54 50.06819 17.64736 36126 ft 377 kts 336°
2026-04-26 06:54 50.11666 17.61621 36129 ft 378 kts 335°
2026-04-26 06:55 50.16517 17.58493 36128 ft 378 kts 335°
2026-04-26 06:55 50.21341 17.55372 36126 ft 377 kts 336°
2026-04-26 06:56 50.26177 17.52261 36125 ft 377 kts 337°
2026-04-26 06:56 50.31108 17.49551 36130 ft 377 kts 339°
2026-04-26 06:57 50.36060 17.46943 36129 ft 376 kts 339°
2026-04-26 06:57 50.41007 17.44332 36134 ft 377 kts 339°
2026-04-26 06:58 50.45990 17.41692 36139 ft 377 kts 339°
2026-04-26 06:58 50.50933 17.39067 36144 ft 376 kts 339°
2026-04-26 06:59 50.55864 17.36444 36150 ft 376 kts 339°
2026-04-26 06:59 50.60801 17.33810 36152 ft 377 kts 339°
2026-04-26 07:00 50.65753 17.31165 36146 ft 375 kts 339°
2026-04-26 07:00 50.70695 17.28518 36151 ft 376 kts 339°
2026-04-26 07:01 50.75625 17.25873 36148 ft 376 kts 338°
2026-04-26 07:01 50.80580 17.23203 36148 ft 375 kts 339°
2026-04-26 07:02 50.85495 17.20560 36156 ft 374 kts 338°
2026-04-26 07:02 50.90367 17.17923 36158 ft 373 kts 338°
2026-04-26 07:03 50.95287 17.15257 36160 ft 374 kts 338°
2026-04-26 07:03 51.00178 17.12605 36159 ft 373 kts 338°
2026-04-26 07:04 51.05106 17.09921 36158 ft 373 kts 338°
2026-04-26 07:04 51.09991 17.07258 36158 ft 371 kts 338°
2026-04-26 07:05 51.14868 17.04591 36166 ft 372 kts 338°
2026-04-26 07:05 51.19740 17.01922 36156 ft 373 kts 338°
2026-04-26 07:06 51.24643 16.99233 36153 ft 372 kts 338°
2026-04-26 07:06 51.29519 16.96550 36153 ft 371 kts 338°
2026-04-26 07:07 51.34402 16.93859 36155 ft 372 kts 338°
2026-04-26 07:07 51.39261 16.91169 36156 ft 372 kts 338°
2026-04-26 07:08 51.44150 16.88463 36149 ft 371 kts 338°
2026-04-26 07:08 51.49007 16.85766 36158 ft 370 kts 338°
2026-04-26 07:09 51.53872 16.83056 36161 ft 371 kts 338°
2026-04-26 07:09 51.58746 16.80341 36164 ft 372 kts 338°
2026-04-26 07:11 51.70857 16.73564 36164 ft 370 kts 338°
2026-04-26 07:11 51.75719 16.70828 36155 ft 369 kts 338°
2026-04-26 07:12 51.80545 16.68109 36153 ft 368 kts 338°
2026-04-26 07:12 51.85347 16.65395 36162 ft 369 kts 338°
2026-04-26 07:13 51.90194 16.62655 36152 ft 369 kts 338°
2026-04-26 07:13 51.95000 16.59926 36157 ft 368 kts 338°
2026-04-26 07:14 51.99829 16.57178 36159 ft 368 kts 338°
2026-04-26 07:14 52.04661 16.54424 36153 ft 368 kts 339°
2026-04-26 07:15 52.09470 16.51679 36157 ft 368 kts 338°
2026-04-26 07:15 52.14299 16.48913 36166 ft 368 kts 338°
2026-04-26 07:16 52.19101 16.46158 36168 ft 367 kts 339°
2026-04-26 07:16 52.23896 16.43403 36168 ft 367 kts 338°
2026-04-26 07:17 52.28695 16.40637 36166 ft 367 kts 338°
2026-04-26 07:17 52.33496 16.37864 36168 ft 367 kts 338°
2026-04-26 07:18 52.38287 16.35089 36173 ft 366 kts 338°
2026-04-26 07:18 52.43061 16.32316 36167 ft 365 kts 338°
2026-04-26 07:19 52.47857 16.29527 36174 ft 366 kts 338°
2026-04-26 07:19 52.52637 16.26739 36171 ft 366 kts 338°
2026-04-26 07:20 52.57416 16.23949 36170 ft 366 kts 338°
2026-04-26 07:20 52.62205 16.21139 36175 ft 366 kts 338°
2026-04-26 07:21 52.66976 16.18337 36177 ft 366 kts 338°
2026-04-26 07:21 52.71745 16.15531 36173 ft 366 kts 338°
2026-04-26 07:22 52.76505 16.12726 36175 ft 365 kts 338°
2026-04-26 07:22 52.81276 16.09906 36177 ft 365 kts 338°
2026-04-26 07:23 52.86028 16.07088 36179 ft 365 kts 338°
2026-04-26 07:23 52.90811 16.04247 36180 ft 365 kts 338°
2026-04-26 07:24 52.95560 16.01418 36175 ft 364 kts 338°
2026-04-26 07:24 53.00315 15.98579 36181 ft 364 kts 338°
2026-04-26 07:25 53.05075 15.95730 36176 ft 364 kts 338°
2026-04-26 07:25 53.09822 15.92884 36177 ft 364 kts 338°
2026-04-26 07:26 53.14552 15.90041 36180 ft 364 kts 338°
2026-04-26 07:26 53.19290 15.87188 36182 ft 364 kts 338°
2026-04-26 07:27 53.24050 15.84312 36176 ft 364 kts 338°
2026-04-26 07:27 53.28806 15.81431 36179 ft 363 kts 338°
2026-04-26 07:28 53.33538 15.78562 36178 ft 363 kts 338°
2026-04-26 07:28 53.38282 15.75674 36172 ft 363 kts 338°
2026-04-26 07:29 53.42990 15.72804 36175 ft 364 kts 338°
2026-04-26 07:29 53.47737 15.69902 36175 ft 363 kts 338°
2026-04-26 07:30 53.52480 15.66993 36176 ft 362 kts 338°
2026-04-26 07:30 53.57201 15.64095 36176 ft 363 kts 338°
2026-04-26 07:31 53.61920 15.61192 36175 ft 363 kts 338°
2026-04-26 07:31 53.66638 15.58280 36174 ft 362 kts 338°
2026-04-26 07:32 53.71331 15.55376 36171 ft 361 kts 338°
2026-04-26 07:32 53.76056 15.52451 36175 ft 363 kts 338°
2026-04-26 07:33 53.80791 15.49505 36184 ft 362 kts 338°
2026-04-26 07:33 53.85486 15.46580 36188 ft 362 kts 338°
2026-04-26 07:34 53.90202 15.43638 36189 ft 362 kts 338°
2026-04-26 07:34 53.94915 15.40684 36187 ft 362 kts 338°
2026-04-26 07:35 53.99627 15.37732 36193 ft 363 kts 338°
2026-04-26 07:35 54.04342 15.34761 36199 ft 362 kts 337°
2026-04-26 07:36 54.09050 15.31791 36199 ft 361 kts 337°
2026-04-26 07:36 54.13745 15.28825 36202 ft 361 kts 337°
2026-04-26 07:37 54.18426 15.25862 36201 ft 361 kts 337°
2026-04-26 07:37 54.23131 15.22874 36206 ft 361 kts 337°
2026-04-26 07:38 54.27799 15.19904 36209 ft 361 kts 336°
2026-04-26 07:38 54.32476 15.16914 36211 ft 360 kts 336°
2026-04-26 07:39 54.37169 15.13913 36208 ft 360 kts 337°
2026-04-26 07:39 54.41834 15.10921 36211 ft 360 kts 337°
2026-04-26 07:40 54.46509 15.07914 36088 ft 360 kts 337°
2026-04-26 07:40 54.48856 15.06407 35839 ft 358 kts 336°
2026-04-26 07:40 54.51158 15.04920 35600 ft 355 kts 337°
2026-04-26 07:40 54.53467 15.03430 35362 ft 353 kts 337°
2026-04-26 07:41 54.55719 15.01974 35120 ft 350 kts 337°
2026-04-26 07:41 54.57986 15.00507 34879 ft 349 kts 337°
2026-04-26 07:41 54.60247 14.99041 34642 ft 348 kts 337°
2026-04-26 07:41 54.62505 14.97574 34393 ft 347 kts 336°
2026-04-26 07:42 54.64752 14.96114 34134 ft 347 kts 336°
2026-04-26 07:42 54.67008 14.94644 33871 ft 348 kts 336°
2026-04-26 07:42 54.69290 14.93155 33601 ft 349 kts 336°
2026-04-26 07:42 54.71547 14.91680 33251 ft 348 kts 336°
2026-04-26 07:43 54.73784 14.90222 32812 ft 348 kts 336°
2026-04-26 07:43 54.76043 14.88749 32256 ft 346 kts 336°
2026-04-26 07:43 54.78281 14.87322 31617 ft 346 kts 338°
2026-04-26 07:43 54.80561 14.86075 31079 ft 343 kts 339°
2026-04-26 07:44 54.82817 14.85019 30581 ft 340 kts 340°
2026-04-26 07:44 54.84976 14.83507 29946 ft 334 kts 330°
2026-04-26 07:44 54.86903 14.81362 29459 ft 329 kts 323°
2026-04-26 07:44 54.88625 14.78752 28957 ft 326 kts 317°
2026-04-26 07:45 54.90086 14.75777 28463 ft 326 kts 311°
2026-04-26 07:45 54.91372 14.72585 27998 ft 323 kts 310°
2026-04-26 07:45 54.92626 14.69416 27539 ft 319 kts 310°
2026-04-26 07:45 54.93858 14.66284 27091 ft 315 kts 309°
2026-04-26 07:46 54.95086 14.63135 26642 ft 312 kts 309°
2026-04-26 07:46 54.96279 14.60067 26209 ft 308 kts 310°
2026-04-26 07:46 54.97470 14.56991 25779 ft 305 kts 310°
2026-04-26 07:46 54.98644 14.53951 25355 ft 302 kts 310°
2026-04-26 07:47 54.99804 14.50944 24940 ft 299 kts 310°
2026-04-26 07:47 55.00954 14.47951 24527 ft 296 kts 310°
2026-04-26 07:47 55.02087 14.45000 24119 ft 293 kts 311°
2026-04-26 07:47 55.03207 14.42076 23710 ft 291 kts 311°
2026-04-26 07:48 55.04314 14.39179 23313 ft 289 kts 311°
2026-04-26 07:48 55.05429 14.36272 22907 ft 286 kts 310°
2026-04-26 07:48 55.06525 14.33407 22512 ft 284 kts 309°
2026-04-26 07:48 55.07605 14.30569 22122 ft 282 kts 310°
2026-04-26 07:49 55.08676 14.27756 21748 ft 280 kts 310°
2026-04-26 07:49 55.09754 14.24931 21361 ft 278 kts 309°
2026-04-26 07:49 55.10811 14.22142 20988 ft 277 kts 310°
2026-04-26 07:50 55.12922 14.16580 20239 ft 274 kts 310°
2026-04-26 07:50 55.13963 14.13831 19872 ft 273 kts 310°
2026-04-26 07:50 55.15002 14.11090 19509 ft 272 kts 309°
2026-04-26 07:50 55.16046 14.08326 19142 ft 271 kts 310°
2026-04-26 07:51 55.17069 14.05618 18783 ft 269 kts 310°
2026-04-26 07:51 55.18093 14.02898 18421 ft 268 kts 310°
2026-04-26 07:51 55.19111 14.00198 18071 ft 267 kts 310°
2026-04-26 07:51 55.20123 13.97501 17732 ft 265 kts 310°
2026-04-26 07:52 55.21131 13.94818 17386 ft 264 kts 310°
2026-04-26 07:52 55.22140 13.92126 17039 ft 262 kts 310°
2026-04-26 07:52 55.23135 13.89477 16699 ft 261 kts 309°
2026-04-26 07:52 55.24123 13.86831 16375 ft 260 kts 310°
2026-04-26 07:53 55.25109 13.84198 16038 ft 259 kts 310°
2026-04-26 07:53 55.26093 13.81566 15688 ft 259 kts 310°
2026-04-26 07:53 55.27073 13.78943 15306 ft 259 kts 310°
2026-04-26 07:53 55.28048 13.76335 14915 ft 260 kts 309°
2026-04-26 07:54 55.29045 13.73659 14506 ft 261 kts 309°
2026-04-26 07:54 55.30024 13.71023 14092 ft 262 kts 310°
2026-04-26 07:54 55.31020 13.68347 13688 ft 263 kts 309°
2026-04-26 07:54 55.32018 13.65660 13297 ft 264 kts 309°
2026-04-26 07:55 55.33015 13.62970 12857 ft 266 kts 309°
2026-04-26 07:55 55.34022 13.60254 12410 ft 267 kts 309°
2026-04-26 07:55 55.35034 13.57521 11980 ft 268 kts 309°
2026-04-26 07:55 55.36057 13.54751 11548 ft 270 kts 309°
2026-04-26 07:56 55.37075 13.51990 11123 ft 271 kts 309°
2026-04-26 07:56 55.38091 13.49235 10696 ft 271 kts 309°
2026-04-26 07:56 55.39098 13.46495 10411 ft 264 kts 308°
2026-04-26 07:56 55.40064 13.43856 10304 ft 252 kts 308°
2026-04-26 07:57 55.41003 13.41288 10099 ft 245 kts 309°
2026-04-26 07:57 55.41918 13.38796 9723 ft 245 kts 309°
2026-04-26 07:57 55.42836 13.36296 9371 ft 245 kts 308°
2026-04-26 07:57 55.43455 13.33417 9206 ft 265 kts 280°
2026-04-26 07:58 55.43076 13.30166 9085 ft 285 kts 250°
2026-04-26 07:58 55.42048 13.27104 8982 ft 288 kts 245°
2026-04-26 07:58 55.41006 13.24124 8836 ft 288 kts 245°
2026-04-26 07:58 55.39979 13.21114 8711 ft 286 kts 246°
2026-04-26 07:59 55.38976 13.18104 8598 ft 285 kts 246°
2026-04-26 07:59 55.37995 13.15121 8473 ft 284 kts 246°
2026-04-26 07:59 55.37005 13.12095 8315 ft 283 kts 246°
2026-04-26 07:59 55.36041 13.09133 8141 ft 282 kts 246°
2026-04-26 08:00 55.35070 13.06149 7944 ft 282 kts 246°
2026-04-26 08:00 55.34101 13.03175 7682 ft 280 kts 246°
2026-04-26 08:00 55.33128 13.00194 7376 ft 279 kts 246°
2026-04-26 08:00 55.32173 12.97264 7059 ft 277 kts 245°
2026-04-26 08:01 55.31220 12.94349 6731 ft 276 kts 245°
2026-04-26 08:01 55.30314 12.91392 6373 ft 272 kts 254°
2026-04-26 08:01 55.30085 12.88278 6091 ft 256 kts 283°
2026-04-26 08:01 55.30568 12.85302 6122 ft 253 kts 294°
2026-04-26 08:02 55.31145 12.82383 6149 ft 254 kts 294°
2026-04-26 08:02 55.31721 12.79429 6175 ft 254 kts 294°
2026-04-26 08:02 55.32281 12.76508 6200 ft 254 kts 293°
2026-04-26 08:02 55.32837 12.73581 6213 ft 254 kts 293°
2026-04-26 08:03 55.33394 12.70636 5982 ft 254 kts 293°
2026-04-26 08:03 55.33943 12.67706 5681 ft 253 kts 293°
2026-04-26 08:03 55.34486 12.64800 5381 ft 252 kts 292°
2026-04-26 08:03 55.35029 12.61886 5088 ft 251 kts 292°
2026-04-26 08:04 55.35569 12.58980 4804 ft 250 kts 292°
2026-04-26 08:04 55.36105 12.56097 4529 ft 248 kts 292°
2026-04-26 08:04 55.36638 12.53225 4267 ft 247 kts 292°
2026-04-26 08:04 55.37166 12.50398 4095 ft 247 kts 294°
2026-04-26 08:05 55.38030 12.47896 3914 ft 239 kts 324°
2026-04-26 08:05 55.39500 12.46612 3931 ft 238 kts 340°
2026-04-26 08:05 55.41027 12.45528 3697 ft 233 kts 339°
2026-04-26 08:05 55.42480 12.44424 3324 ft 226 kts 338°
2026-04-26 08:06 55.43900 12.43317 2973 ft 218 kts 338°
2026-04-26 08:06 55.45253 12.42253 2705 ft 212 kts 338°
2026-04-26 08:06 55.46649 12.41643 2417 ft 208 kts
2026-04-26 08:06 55.47890 12.42720 2369 ft 197 kts 40°
2026-04-26 08:07 55.48872 12.44376 2398 ft 192 kts 39°
2026-04-26 08:07 55.49807 12.45859 2442 ft 167 kts 38°
2026-04-26 08:07 55.50649 12.47162 2287 ft 159 kts 37°
2026-04-26 08:07 55.51481 12.48434 2041 ft 158 kts 37°
2026-04-26 08:08 55.52286 12.49667 1956 ft 146 kts 37°
2026-04-26 08:08 55.52999 12.50772 1869 ft 128 kts 36°
2026-04-26 08:08 55.53661 12.51818 1648 ft 127 kts 36°
2026-04-26 08:08 55.54317 12.52808 1367 ft 126 kts 36°
2026-04-26 08:09 55.54994 12.53807 1117 ft 126 kts 36°
2026-04-26 08:09 55.55656 12.54823 967 ft 127 kts 38°
2026-04-26 08:09 55.56313 12.55853 814 ft 127 kts 38°
2026-04-26 08:09 55.56979 12.56887 629 ft 127 kts 38°
2026-04-26 08:10 55.57645 12.57917 437 ft 128 kts 38°
2026-04-26 08:10 55.58316 12.58943 281 ft 128 kts 39°
2026-04-26 08:10 55.58983 12.59992 116 ft 128 kts 39°
2026-04-26 08:10 55.59656 12.61021 19 ft 125 kts 39°
2026-04-26 08:11 55.60217 12.61889 13 ft 84 kts 39°
2026-04-26 08:11 55.60530 12.62369 15 ft 35 kts 41°
2026-04-26 08:11 55.60705 12.62650 19 ft 31 kts 40°
2026-04-26 08:11 55.60884 12.62828 20 ft 27 kts 12°
2026-04-26 08:12 55.61012 12.62875 21 ft 15 kts 12°
2026-04-26 08:12 55.61114 12.62921 22 ft 15 kts 25°
2026-04-26 08:12 55.61198 12.63035 21 ft 16 kts 43°
2026-04-26 08:12 55.61284 12.63170 21 ft 16 kts 41°
2026-04-26 08:13 55.61369 12.63296 22 ft 15 kts 40°
2026-04-26 08:13 55.61451 12.63424 22 ft 15 kts 43°
2026-04-26 08:13 55.61533 12.63550 23 ft 15 kts 40°
2026-04-26 08:13 55.61611 12.63672 24 ft 14 kts 41°
2026-04-26 08:14 55.61691 12.63791 22 ft 16 kts 41°
2026-04-26 08:14 55.61776 12.63921 22 ft 16 kts 40°
2026-04-26 08:14 55.61865 12.64052 20 ft 17 kts 37°
2026-04-26 08:14 55.61976 12.64156 19 ft 18 kts 24°
2026-04-26 08:15 55.62094 12.64251 15 ft 19 kts 27°
2026-04-26 08:15 55.62213 12.64358 15 ft 19 kts 36°
2026-04-26 08:15 55.62285 12.64547 15 ft 18 kts 65°
2026-04-26 08:15 55.62338 12.64758 15 ft 18 kts 67°
2026-04-26 08:16 55.62319 12.64959 17 ft 16 kts 123°
2026-04-26 08:16 55.62282 12.65141 18 ft 16 kts 69°
2026-04-26 08:16 55.62377 12.65204 19 ft 15 kts
2026-04-26 08:16 55.62441 12.65326 19 ft 15 kts 84°
2026-04-26 08:17 55.62450 12.65501 18 ft 8 kts 65°
2026-04-26 08:17 55.62493 12.65555 19 ft 5 kts 28°
2026-04-26 08:17 55.62515 12.65572 18 ft 2 kts 23°
2026-04-26 08:17 55.62517 12.65575 18 ft 0 kts 23°